Volver al catálogo

THORAD DELTA 1 DEB

ActivoLEO
NORAD 8438·DEBRIS·🇺🇸 United States

Lanzado Nov 15, 1974 desde Vandenberg Space Force Base

Loading…

Próximos Pases (próximas 24 horas)

TLE

ActualizadoSource: Space-Track

Época: Sep 14, 2026, 08:11 UTC

1 08438U 74089CP  26257.34159168  .00003947  00000-0  23814-2 0  9993
2 08438 101.6512 224.2281 0135642 340.7403  18.8655 14.03008722540159

Sigue THORAD DELTA 1 DEB en tiempo real con AllMySat

Download on the App Store